Location: Ostrava
(49.8330°N, 18.2830°E)
Time: 21:56:37
(UTC+02:00)

Iridium 7 - Visible Passes

Search period start: 26 August 2016 00:00
Search period end: 05 September 2016 00:00
Orbit: 776 x 779 km, 86.4° (Epoch: 26 August)

Date Brightness Start Highest point End Pass type
(mag) Time Alt. Az. Time Alt. Az. Time Alt. Az.
26 Aug 7.1 20:13:09 10° NNW 20:18:02 41° W 20:22:54 10° SSW visible
27 Aug 8.9 21:23:06 10° WNW 21:24:20 11° WNW 21:25:34 10° W visible
28 Aug 8.4 20:47:43 10° NW 20:51:14 19° WNW 20:54:44 10° WSW visible
29 Aug 7.7 20:13:30 10° NNW 20:18:01 30° W 20:22:31 10° SW visible
31 Aug 8.7 20:48:37 10° NW 20:51:06 14° WNW 20:53:35 10° WSW visible
01 Sep 8.4 20:13:58 10° NNW 20:17:57 23° WNW 20:21:55 10° SW visible
04 Sep 8.7 20:14:38 10° NW 20:17:50 17° WNW 20:21:03 10° WSW visible
